Preview of NWS' New Version of Forecast
This preview is not operational and should not be used for support decisions.
Latest weather observations around

Duluth International Airport (KDLH)

Using International System of Units (Switch to English Units)
Date/ Time (CDT) Wind (kph) Vis. (km) Weather Sky Cond. Temp (°C) Rel. Humidity Wind Chill (°C) Heat Index (°C) Pressure Precip. (cm)
Air Dwpt 6 hour Altimeter (hPa) Sea level (hPa) 1 hr 3 hr 6 hr
Max Min
Mar 21 20:55 NNW 15 16.09 Clear CLR 8 -6     38% 5   1014.6 1015.9      
Mar 21 19:55 NNW 22 16.09 Clear CLR 9 -6     34% 6   1013.6 1014.9      
Mar 21 18:55 NNW 18 16.09 Clear CLR 11 -8     27%     1012.5 1013.9      
Mar 21 17:55 NW 22 16.09 Clear CLR 11 -6     31%     1011.9 1013.3      
Mar 21 16:55 NW 28 16.09 Clear CLR 11 -6     31%     1011.9 1012.9      
Mar 21 15:55   16.09 Clear CLR 11 -3     39%     1011.5 1012.6      
Mar 21 14:55 WNW 24 16.09 Clear CLR 10 -2     44%     1011.5 1012.7      
Mar 21 13:55 NW 26 16.09 Clear CLR 9 -1     48% 6   1011.9 1013.3      
Mar 21 12:55 WNW 32 16.09 Clear and Windy CLR 8 -2     51% 4   1012.5 1013.7      
Mar 21 11:55   16.09 Clear CLR 7 -2     55%     1012.5 1013.8      
Mar 21 10:55   16.09 Clear CLR 5 -2     62%     1013.2 1014.8      
Mar 21 09:55 W 24 16.09 Clear CLR 3 -2     70% -2   1014.2 1015.7      
Mar 21 08:55 W 22 16.09 Clear CLR 2 -2     73% -3   1014.9 1016.3      
Mar 21 07:55 W 18 16.09 Clear CLR -1 -4     78% -6   1015.6 1017.3      
Mar 21 06:55 W 15 16.09 Mostly Clear FEW120 -2 -4     82% -6   1015.9 1017.6      
Mar 21 05:55 W 15 16.09 Mostly Clear FEW030 -1 -4     78% -6   1016.3 1017.9      
Mar 21 04:55 W 9 16.09 Partly Cloudy SCT030 -1 -4     78% -4   1016.6 1018.3      
Mar 21 03:55 WNW 9 16.09 Cloudy OVC032 2 -3     67% -1   1017.3 1018.8      
Mar 21 02:55 WNW 11 16.09 Cloudy OVC032 3 -2     70% 0   1018 1019.4      
Mar 21 01:55 WNW 11 16.09 Cloudy OVC033 3 -2     70% 0   1018 1019.4      
Mar 21 00:55 NW 8 16.09 Cloudy OVC032 3 -2     70% 1   1018 1019.5      
Mar 20 23:55 NNW 13 16.09 Cloudy OVC037 3 -2     67% 0   1018 1019.6      
Mar 20 22:55 N 9 16.09 Partly Cloudy SCT038 3 -2     70% 0   1017.6 1019.4      
Mar 20 21:55 N 15 16.09 Mostly Cloudy BKN042 3 -2     70% 0   1017.6 1019.3      
Mar 20 20:55 N 13 16.09 Mostly Cloudy BKN039 4 -1     70% 1   1017.6 1019.3      
Mar 20 19:55 N 11 16.09 Mostly Cloudy BKN039 4 -1     70% 1   1016.9 1018.5      
Mar 20 18:55 N 15 16.09 Mostly Cloudy SCT026 BKN031 BKN039 4 -1     67% 1   1015.9 1017.6      
Mar 20 17:55 N 22 16.09 Mostly Cloudy BKN036 BKN044 4 -1     67% 0   1015.2 1016.8      
Mar 20 16:55 N 15 16.09 Cloudy SCT025 BKN032 OVC044 4 -1     67% 1   1014.6 1016.2      
Mar 20 15:55 N 22 16.09 Cloudy BKN027 OVC034 4 -1     67% 0   1013.9 1015.4      
Mar 20 14:55 N 21 16.09 Mostly Cloudy BKN026 BKN030 4 -1     67% 0   1013.2 1014.6      
Mar 20 13:55 N 22 16.09 Cloudy BKN022 BKN026 OVC038 4 -1     67% 0   1012.5 1014.1      
Mar 20 12:55 NNW 21 16.09 Mostly Cloudy BKN020 BKN036 4 -1     67% 0   1012.2 1013.5     0
Mar 20 11:55 N 17 16.09 Mostly Cloudy BKN017 4 -1     70% 0   1011.2 1012.7      
Mar 20 10:55 N 15 16.09 Cloudy OVC015 3 -1     76% -1   1010.5 1012.2      
Mar 20 09:55 NNW 22 14.48 Cloudy OVC012 2 -2     75% -3   1009.8 1011.3 0 0  
Mar 20 08:55 NW 15 16.09 Cloudy OVC012 2 -2     78% -2   1009.8 1011.3      
Mar 20 07:55 WNW 17 16.09 Cloudy OVC013 2 -2     78% -3   1009.5 1011      
Mar 20 06:55 WNW 17 16.09 Cloudy OVC014 2 -2     78% -3   1009.2 1010.6      
Mar 20 05:55 W 22 16.09 Cloudy OVC014 2 -2     78% -3   1009.5 1010.8      
Mar 20 04:55 W 24 16.09 Cloudy OVC016 2 -2     78% -4   1009.2 1010.7      
Mar 20 04:41   16.09 Mostly Cloudy BKN017 BKN100 2 -2     75%     1009.2        
Mar 20 03:55 W 28 16.09 Cloudy FEW075 OVC100 2 -2     75% -3   1009.8 1011.4      
Mar 20 02:55 W 22 16.09 Cloudy OVC095 2 -2     75% -3   1011.2 1012.7      
Mar 20 01:55 WSW 22 16.09 Cloudy OVC090 3 -2     72% -2   1011.9 1013.2      
Mar 20 00:55 WSW 24 16.09 Cloudy OVC100 3 -1     76% -2   1012.5 1014.1      
Mar 19 23:55 WSW 24 16.09 Cloudy OVC095 3 -1     73% -2   1013.2 1015      
Mar 19 22:55 WSW 21 16.09 Mostly Cloudy BKN120 4 -2     67% 0   1013.9 1015.6      
Mar 19 21:55 WSW 21 16.09 Partly Cloudy SCT110 4 -2     67% 0   1014.9 1016.5      
Mar 19 20:55 WSW 17 16.09 Partly Cloudy SCT120 4 -2     64% 0   1015.6 1017.5      
Mar 19 19:55 WSW 21 16.09 Partly Cloudy SCT120 4 -2     62% 0   1016.3 1018.3      
Mar 19 18:55 SW 18 16.09 Partly Cloudy SCT120 5 -3     57% 1   1016.6 1018.5      
Mar 19 17:55 SW 22 16.09 Mostly Clear FEW120 6 -3     55% 2   1017.3 1018.9      
Mar 19 16:55 SW 24 16.09 Mostly Clear FEW120 6 -3     53% 1   1017.3 1019.2      
Mar 19 15:55 WSW 22 16.09 Mostly Clear FEW120 6 -3     55% 2   1018 1019.6      
Mar 19 14:55 SW 26 16.09 Clear CLR 6 -3     53% 1   1018.6 1020.3      
Mar 19 13:55 WSW 21 16.09 Partly Cloudy SCT070 5 -3     57% 1   1019.7 1021.5      
Mar 19 12:55 WSW 17 16.09 Mostly Cloudy BKN070 3 -3     64% -1   1020.7 1022.5      
Mar 19 11:55 WSW 11 16.09 Mostly Cloudy BKN070 2 -3     70% -1   1021 1022.8      
Mar 19 10:55 WSW 15 16.09 Mostly Cloudy BKN075 2 -3     72% -2   1021 1023      
Mar 19 09:55 W 15 16.09 Mostly Clear FEW120 1 -4     69% -3   1021.3 1023.3      
Mar 19 08:55 WSW 17 16.09 Mostly Clear FEW120 -1 -4     75% -5   1021.3 1023.4      
Mar 19 07:55 SW 11 16.09 Mostly Clear FEW120 -2 -5     81% -6   1021.7 1023.7      
Mar 19 06:55 SW 13 16.09 Clear CLR -3 -6     81% -7   1021.3 1023.3      
Mar 19 05:55 SW 11 16.09 Clear CLR -3 -6     78% -7   1021.3 1023.4      
Mar 19 04:55 WSW 11 16.09 Clear CLR -3 -7     75% -7   1021.7 1023.6      
Mar 19 03:55 WSW 8 16.09 Mostly Cloudy BKN080 -2 -6     72% -5   1022 1023.9      
Mar 19 02:55 W 11 16.09 Mostly Cloudy FEW085 BKN110 -2 -6     75% -6   1022.4 1024.4      
Mar 19 01:55 W 13 16.09 Clear CLR -2 -7     69% -6   1022.4 1024.4      
Mar 19 00:55 WSW 11 16.09 Cloudy OVC095 -1 -6     69% -4   1022.7 1024.5      
Mar 18 23:55 WSW 13 16.09 Mostly Cloudy BKN090 -1 -7     66% -5   1022.7 1024.5      
Mar 18 22:55 WSW 15 16.09 Cloudy OVC110 1 -6     63% -4   1022.4 1024.3      
Mar 18 21:55 SW 11 16.09 Mostly Clear FEW120 1 -7     58% -3   1022.4 1024.4      
May 13 21:55 WSW 15 16.09 Mostly Cloudy BKN120 18 6     43%     1011.5 1011.7      
May 13 09:55 W 17 16.09 Cloudy OVC100 16 -2     30%     1016.6 1017.2      
May 13 07:55 WNW 13 16.09 Mostly Clear FEW120 12 -1     41%     1016.9 1017.5      
May 12 10:55 E 9 16.09 Clear CLR 14 -6     24%     1021.7 1022.7      
Notice The following observation data may not be complete
May 12 07:55 ENE 8 16.09 Clear CLR   -4      %     1021 1022.2      
May 12 03:55 N 5 16.09 Clear CLR -1 -6     69% -3   1019.7 1021      
Jun 11 10:55   6.44 Rain and Fog/Mist OVC095 15 14     93%     1007.1   0    
Jun 11 06:55 Calm 16.09 Partly Cloudy SCT120 16 14     87%     1008.1 1007.8      
Notice The following observation data may not be complete
Jun 10 05:21   16.09 Mostly Cloudy SCT008 SCT042 BKN075   16      %     999.3   3    
Jun 08 23:55 ENE 8 16.09 Mostly Clear FEW100 14 12     87%     1011.9 1011.8      
Jun 08 03:55 Calm 16.09 Mostly Clear FEW120 13 11     87%     1012.5 1012.4      
Jun 07 21:24 ESE 11 16.09 Thunderstorms SCT050 BKN080 BKN120 19 8     48%     1014.9        
Jun 07 13:55 S 17 16.09 Mostly Clear FEW120 26 11     38%   26 1017.6 1017.6      
Jun 06 01:55 Calm 16.09 Clear CLR 7 4     80%     1020 1020.5      
Jun 05 17:55 E 21 16.09 Clear CLR 20 8     45%     1018 1018.3      
Jun 05 14:55 E 21 16.09 Mostly Clear FEW045 21 9     49%     1018.3 1018.6